EW2082 Weather Reports


Display with metric or nautical units.
time (UTC)temp
F
wind
direction
speed
MPH
gust
MPH
rain 1hr
in
rain 24hr
in
rain mn
in
humidity
%
barometer
mb
20260905130005 62 142 0.0 0.0 0.00 0.00 0.00 93 1012.3
20260905125004 62 142 0.0 0.0 0.00 0.00 0.00 94 1012.4
20260905123004 62 142 0.0 0.0 0.00 0.00 0.00 93 1012.3
20260905122004 62 142 0.0 0.0 0.00 0.00 0.00 93 1012.3
20260905121004 62 142 0.0 0.0 0.00 0.00 0.00 93 1012.4
20260905120004 62 142 0.0 0.0 0.00 0.00 0.00 93 1012.3
20260905115003 62 142 0.0 0.0 0.00 0.00 0.00 93 1012.3
20260905114003 62 142 0.0 0.0 0.00 0.00 0.00 92 1012.3
20260905113004 62 142 0.0 0.0 0.00 0.00 0.00 92 1012.3
20260905112003 63 142 0.0 0.0 0.00 0.00 0.00 92 1012.3
20260905110004 63 142 0.0 0.0 0.00 0.00 0.00 92 1012.6
20260905105003 63 142 0.0 0.0 0.00 0.00 0.00 92 1012.7
20260905104004 63 142 0.0 0.0 0.00 0.00 0.00 92 1012.5
20260905103004 63 142 0.0 0.0 0.00 0.00 0.00 91 1012.4
20260905102003 64 142 0.0 0.0 0.00 0.00 0.00 92 1012.5
20260905101003 64 142 0.0 0.0 0.00 0.00 0.00 92 1012.7
20260905100004 64 142 0.0 0.0 0.00 0.00 0.00 92 1012.6
20260905093004 64 142 0.0 0.0 0.00 0.00 0.00 92 1012.7
20260905092004 64 142 0.0 0.0 0.00 0.00 0.00 92 1012.7
20260905091004 64 142 0.0 0.0 0.00 0.00 0.00 91 1012.7
20260905090004 65 142 0.0 0.0 0.00 0.00 0.00 91 1012.7
20260905085004 65 142 0.0 0.0 0.00 0.00 0.00 91 1012.8
20260905083004 65 142 0.0 1.0 0.00 0.00 0.00 92 1012.9
20260905082005 64 250 0.0 0.0 0.00 0.00 0.00 91 1012.9
20260905081004 64 250 0.0 0.0 0.00 0.00 0.00 91 1013.1
20260905080005 64 250 0.0 0.0 0.00 0.00 0.00 90 1013.1
20260905075005 64 250 0.0 0.0 0.00 0.00 0.00 90 1013.0
20260905074004 64 250 0.0 0.0 0.00 0.00 0.00 90 1013.0
20260905073004 65 250 0.0 0.0 0.00 0.00 0.00 90 1013.0
20260905072004 65 250 0.0 0.0 0.00 0.00 0.00 90 1013.0
20260905071004 65 250 0.0 0.0 0.00 0.00 0.00 90 1012.9
20260905063005 67 250 0.0 0.0 0.00 0.00 0.00 89 1013.0
20260905062004 67 250 0.0 0.0 0.00 0.00 0.00 88 1012.8
20260905061005 67 250 0.0 0.0 0.00 0.00 0.00 88 1012.8
20260905060005 68 250 0.0 0.0 0.00 0.00 0.00 88 1012.8
20260905054005 68 252 0.0 0.0 0.00 0.00 0.00 88 1012.6
20260905052004 68 252 0.0 1.0 0.00 0.00 0.00 88 1012.8
20260905051005 68 252 0.0 1.0 0.00 0.00 0.00 88 1012.9
20260905050005 69 252 0.0 0.0 0.00 0.00 0.00 87 1012.7
20260905045005 69 253 0.0 0.0 0.00 0.00 0.00 87 1012.6
20260905044004 69 259 0.0 1.0 0.00 0.00 0.00 87 1012.5
20260905043005 69 184 0.0 0.0 0.00 0.00 0.00 86 1012.4
20260905042005 69 240 0.0 0.0 0.00 0.00 0.00 86 1012.4
20260905041004 69 240 0.0 2.0 0.00 0.00 0.00 85 1012.4
20260905040005 70 243 0.0 1.0 0.00 0.00 0.00 85 1012.2
20260905035004 70 10 0.0 1.0 0.00 0.00 0.00 84 1012.1
20260905034004 70 234 0.0 1.0 0.00 0.00 0.00 84 1012.1
20260905033004 70 345 0.0 2.0 0.00 0.00 0.00 84 1012.1
20260905032004 70 28 0.0 1.0 0.00 0.00 0.00 83 1011.8
20260905031004 70 287 0.0 1.0 0.00 0.00 0.00 83 1011.7
20260905030004 70 288 0.0 2.0 0.00 0.00 0.00 83 1011.7
20260905025005 70 360 0.0 4.0 0.00 0.00 0.00 82 1011.5
20260905024005 71 234 0.0 1.0 0.00 0.00 0.00 81 1011.6
20260905022005 72 7 0.0 2.0 0.00 0.00 0.00 79 1011.6
20260905021004 72 15 0.0 3.0 0.00 0.00 0.00 78 1011.6
20260905014004 74 39 0.0 1.0 0.00 0.00 0.00 73 1011.7
20260905010005 78 29 0.0 1.0 0.00 0.00 0.00 67 1011.8
20260905005003 78 8 0.0 4.0 0.00 0.00 0.00 66 1011.8
20260905004003 79 18 0.0 3.0 0.00 0.00 0.00 65 1011.8
20260905003004 79 32 0.0 2.0 0.00 0.00 0.00 64 1011.8
20260905002003 81 310 2.0 4.0 0.00 0.00 0.00 61 1011.8
20260905001004 82 275 0.0 1.0 0.00 0.00 0.00 60 1011.9
20260905000005 82 122 0.0 3.0 0.00 0.00 0.00 60 1011.8
20260904235003 83 15 0.0 2.0 0.00 0.00 0.00 58 1011.9
20260904234003 84 17 0.0 2.0 0.00 0.00 0.00 57 1011.7
20260904233004 86 22 0.0 1.0 0.00 0.00 0.00 52 1011.8
20260904232003 85 134 0.0 1.0 0.00 0.00 0.00 41 1011.9
20260904231003 85 322 0.0 0.0 0.00 0.00 0.00 38 1011.7
20260904230005 85 203 0.0 2.0 0.00 0.00 0.00 41 1011.9
20260904225003 85 203 0.0 0.0 0.00 0.00 0.00 43 1011.9
20260904224004 85 161 0.0 3.0 0.00 0.00 0.00 44 1011.9
20260904223003 85 51 0.0 2.0 0.00 0.00 0.00 41 1012.1
20260904222003 85 179 0.0 0.0 0.00 0.00 0.00 43 1012.0
20260904221003 84 120 0.0 3.0 0.00 0.00 0.00 47 1012.1
20260904220004 84 186 0.0 2.0 0.00 0.00 0.00 47 1012.2
20260904215004 84 209 0.0 2.0 0.00 0.00 0.00 50 1012.2
20260904214004 84 52 0.0 0.0 0.00 0.00 0.00 51 1012.3
20260904213003 84 236 0.0 1.0 0.00 0.00 0.00 49 1012.4
20260904211005 84 160 0.0 0.0 0.00 0.00 0.00 51 1012.5
20260904210005 84 175 0.0 0.0 0.00 0.00 0.00 52 1012.5
20260904205004 84 231 1.0 1.0 0.00 0.00 0.00 52 1012.5
20260904204005 84 78 0.0 0.0 0.00 0.00 0.00 51 1012.5
20260904203006 83 212 0.0 3.0 0.00 0.00 0.00 54 1012.6
20260904201004 82 212 0.0 7.0 0.00 0.00 0.00 56 1012.9
20260904195004 82 168 1.0 3.0 0.00 0.00 0.00 57 1012.9
20260904194004 82 203 0.0 4.0 0.00 0.00 0.00 59 1013.1
20260904193005 81 28 0.0 3.0 0.00 0.00 0.00 57 1013.2
20260904192004 81 268 0.0 4.0 0.00 0.00 0.00 61 1013.2
20260904191004 81 245 0.0 4.0 0.00 0.00 0.00 60 1013.5
20260904190005 81 244 0.0 4.0 0.00 0.00 0.00 61 1013.7
20260904185004 81 146 0.0 4.0 0.00 0.00 0.00 60 1013.6
20260904184005 80 203 0.0 3.0 0.00 0.00 0.00 59 1013.7
20260904183004 80 218 0.0 5.0 0.00 0.00 0.00 60 1013.7
20260904182004 80 349 0.0 3.0 0.00 0.00 0.00 62 1013.6
20260904180004 79 158 0.0 2.0 0.00 0.00 0.00 61 1013.7
20260904175004 79 127 0.0 1.0 0.00 0.00 0.00 63 1013.8
20260904174004 79 172 0.0 1.0 0.00 0.00 0.00 62 1013.8
20260904173004 79 186 0.0 3.0 0.00 0.00 0.00 62 1013.7
20260904172004 79 255 0.0 0.0 0.00 0.00 0.00 63 1013.6
20260904171004 78 211 0.0 3.0 0.00 0.00 0.00 65 1013.6
20260904170006 77 178 0.0 3.0 0.00 0.00 0.00 65 1013.5
20260904165004 76 193 0.0 2.0 0.00 0.00 0.00 68 1013.3
20260904164004 76 156 0.0 4.0 0.00 0.00 0.00 68 1013.3
20260904163004 75 349 0.0 1.0 0.00 0.00 0.00 68 1013.1
20260904162004 76 113 0.0 1.0 0.00 0.00 0.00 66 1013.0
20260904161004 77 109 0.0 1.0 0.00 0.00 0.00 67 1013.0
20260904160004 76 285 0.0 0.0 0.00 0.00 0.00 69 1013.0
20260904155004 75 155 0.0 0.0 0.00 0.00 0.00 71 1012.9
20260904154004 75 101 0.0 0.0 0.00 0.00 0.00 72 1012.9
20260904153004 74 123 0.0 1.0 0.00 0.00 0.00 76 1012.9
20260904152004 72 92 0.0 1.0 0.00 0.00 0.00 81 1013.0
20260904151004 69 150 0.0 1.0 0.00 0.00 0.00 86 1012.9
20260904150004 66 25 0.0 1.0 0.00 0.00 0.00 91 1012.8
20260904144005 64 235 0.0 0.0 0.00 0.00 0.00 92 1012.8
20260904142004 63 235 0.0 0.0 0.00 0.00 0.00 92 1012.4
20260904141005 63 235 0.0 0.0 0.00 0.00 0.00 92 1012.3
20260904140005 62 235 0.0 0.0 0.00 0.00 0.00 93 1012.2
20260904135004 62 235 0.0 0.0 0.00 0.00 0.00 93 1012.1
20260904134004 62 235 0.0 0.0 0.00 0.00 0.00 92 1012.1
20260904133005 62 235 0.0 0.0 0.00 0.00 0.00 92 1012.1
20260904132004 61 235 0.0 0.0 0.00 0.00 0.00 92 1012.1
20260904131004 61 235 0.0 0.0 0.00 0.00 0.00 92 1012.1